TimeCDT,TemperatureF,Dew PointF,Humidity,Sea Level PressureIn,VisibilityMPH,Wind Direction,Wind SpeedMPH,Gust SpeedMPH,PrecipitationIn,Events,Conditions,WindDirDegrees,DateUTC
12:55 AM,72.3,66.0,80,29.83,10.0,South,16.1,-,N/A,,Overcast,190,2012-10-24 05:55:00
1:55 AM,71.6,66.0,82,29.84,10.0,SSW,15.0,-,N/A,,Mostly Cloudy,200,2012-10-24 06:55:00
2:55 AM,70.7,65.7,84,29.84,10.0,SSW,13.8,-,N/A,,Partly Cloudy,200,2012-10-24 07:55:00
3:55 AM,68.9,65.3,88,29.84,10.0,South,12.7,-,N/A,,Clear,190,2012-10-24 08:55:00
4:55 AM,68.0,64.8,89,29.84,10.0,South,12.7,-,N/A,,Clear,190,2012-10-24 09:55:00
5:55 AM,67.5,64.2,89,29.85,10.0,South,12.7,-,N/A,,Clear,180,2012-10-24 10:55:00
6:55 AM,65.8,63.7,93,29.86,10.0,South,9.2,-,N/A,,Clear,170,2012-10-24 11:55:00
7:55 AM,65.7,63.9,94,29.86,10.0,South,12.7,-,N/A,,Clear,180,2012-10-24 12:55:00
8:55 AM,68.7,64.6,87,29.86,10.0,South,19.6,24.2,N/A,,Clear,190,2012-10-24 13:55:00
9:55 AM,72.0,65.3,79,29.85,10.0,SSW,19.6,26.5,N/A,,Clear,200,2012-10-24 14:55:00
10:55 AM,74.8,65.7,73,29.84,10.0,SSW,25.3,32.2,N/A,,Clear,200,2012-10-24 15:55:00
11:55 AM,77.0,66.4,70,29.83,10.0,SSW,23.0,33.4,N/A,,Clear,200,2012-10-24 16:55:00
12:55 PM,80.1,67.6,66,29.81,10.0,SSW,21.9,27.6,N/A,,Clear,200,2012-10-24 17:55:00
1:55 PM,80.4,68.0,66,29.78,10.0,SSW,24.2,29.9,N/A,,Clear,200,2012-10-24 18:55:00
2:55 PM,81.5,67.5,62,29.78,10.0,South,23.0,28.8,N/A,,Partly Cloudy,190,2012-10-24 19:55:00
3:55 PM,80.8,67.5,64,29.77,10.0,South,23.0,-,N/A,,Scattered Clouds,190,2012-10-24 20:55:00
4:55 PM,79.7,66.9,65,29.77,10.0,South,20.7,25.3,N/A,,Partly Cloudy,190,2012-10-24 21:55:00
5:55 PM,78.1,65.7,65,29.77,10.0,South,16.1,-,N/A,,Scattered Clouds,180,2012-10-24 22:55:00
6:55 PM,75.9,65.1,69,29.77,10.0,South,12.7,-,N/A,,Scattered Clouds,170,2012-10-24 23:55:00
7:55 PM,75.7,63.7,66,29.77,10.0,South,16.1,-,N/A,,Clear,190,2012-10-25 00:55:00
8:55 PM,73.0,63.9,73,29.77,10.0,South,10.4,-,N/A,,Clear,180,2012-10-25 01:55:00
9:55 PM,74.1,63.0,68,29.76,10.0,South,17.3,23.0,N/A,,Clear,180,2012-10-25 02:55:00
10:55 PM,72.3,62.6,71,29.75,10.0,South,13.8,-,N/A,,Clear,180,2012-10-25 03:55:00
11:55 PM,70.9,62.4,75,29.74,10.0,South,13.8,-,N/A,,Clear,180,2012-10-25 04:55:00